Hourly Data Report for October 08, 2015

All times are specified in Local Standard Time (LST). Add 1 hour to adjust for Daylight Saving Time where and when it is observed.

TORONTO INTL A
ONTARIO

43°40'36.000" N
79°37'50.000" W
173.40 m
6158731
71624
YYZ

Download Data

Hourly Data (October 2015)
Hourly Data Report for October 8, 2015
Temp Definition
°C
Dew Point Temp Definition
°C
Rel Hum Definition
%
Wind Dir Definition
10's deg

Wind Spd Definition
km/h
Visibility Definition
km
Stn Press Definition
kPa
Hmdx Definition


Wind Chill Definition


Weather Definition


TIME
00:00 Legend Double Dagger 10.4 7.7 83 35 16 24.1 100.00     LegendNANA
01:00 Legend Double Dagger 9.1 7.1 87 1 14 24.1 100.03     Clear
02:00 Legend Double Dagger 8.3 6.4 88 1 12 24.1 100.03     LegendNANA
03:00 Legend Double Dagger 7.8 5.8 87 2 10 24.1 99.99     LegendNANA
04:00 Legend Double Dagger 8.2 3.7 73 5 8 24.1 100.01     Mostly Cloudy
05:00 Legend Double Dagger 8.8 2.8 66 6 11 24.1 100.06     LegendNANA
06:00 Legend Double Dagger 8.4 2.4 66 6 11 24.1 100.08     LegendNANA
07:00 Legend Double Dagger 8.5 3.0 68 5 10 24.1 100.11     Mainly Clear
08:00 Legend Double Dagger 10.2 4.6 68 8 11 24.1 100.11     LegendNANA
09:00 Legend Double Dagger 11.9 6.2 68 9 13 24.1 100.08     LegendNANA
10:00 Legend Double Dagger 12.7 6.3 65 12 18 24.1 100.09     Mostly Cloudy
11:00 Legend Double Dagger 13.1 7.2 67 10 14 24.1 100.09     LegendNANA
12:00 Legend Double Dagger 14.1 7.5 64 13 16 24.1 99.98     LegendNANA
13:00 Legend Double Dagger 14.3 7.6 64 15 17 24.1 99.91     Mostly Cloudy
14:00 Legend Double Dagger 14.8 7.7 62 11 13 24.1 99.80     LegendNANA
15:00 Legend Double Dagger 14.3 7.2 62 10 10 24.1 99.76     LegendNANA
16:00 Legend Double Dagger 14.0 6.4 60 11 17 24.1 99.71     Mostly Cloudy
17:00 Legend Double Dagger 12.7 5.7 62 10 18 24.1 99.66     LegendNANA
18:00 Legend Double Dagger 12.4 5.4 62 10 14 24.1 99.62     LegendNANA
19:00 Legend Double Dagger 12.4 4.4 58 10 10 24.1 99.54     Mostly Cloudy
20:00 Legend Double Dagger 12.1 8.0 76 8 16 19.3 99.47     Rain
21:00 Legend Double Dagger 11.4 9.3 87 10 14 16.1 99.41     Rain
22:00 Legend Double Dagger 11.1 9.7 91 9 11 16.1 99.33     Rain
23:00 Legend Double Dagger 10.9 9.8 93 10 13 19.3 99.17     Rain

Notes on Data Quality.

Legend

  • E = Estimated
  • M = Missing
  • NA = Not Available
  • ‡ = Partner data that is not subject to review by the National Climate Archives
Date modified: